ABR402 LEMD-EDDV

Flight info

Callsign ABR402
Flight time 2h 28m
Altitude 36000
Route RBO DCT OSTIX DCT GASMO DCT DGO DCT CEGAM L176 LUSEM DCT LULUT DCT ADABI DCT BOKNO DCT DIBES DCT VIQAQ DCT TSU UN858 OQQAL DCT RANUX/N0458F370 DCT VALEK DCT LUTAX DCT DIK/N0459F380 DCT ARCKY/N0458F370 DCT IBESA DCT ABAMI DCT HMM M170 ZEPHE T463 NIE NIE1L
Aircraft B738/M-SDE2E3FGHIRWXY/LB1

Departure

Time 2026-05-08 03:45
Airport Adolfo Suárez Madrid–Barajas Airport (LEMD)

Arrival

Time 2026-05-08 06:13
Airport Hannover Airport (EDDV)
Time Latitude Longitude Altitude Speed Heading
2026-05-08 03:31 40.45960 -3.55691 1947 ft 0 kts 89°
2026-05-08 03:32 40.45960 -3.55682 1947 ft 3 kts 89°
2026-05-08 03:33 40.45961 -3.55598 1945 ft 15 kts 89°
2026-05-08 03:33 40.46006 -3.55479 1941 ft 17 kts 354°
2026-05-08 03:33 40.46101 -3.55567 1943 ft 16 kts 324°
2026-05-08 03:33 40.46190 -3.55657 1944 ft 16 kts 323°
2026-05-08 03:34 40.46274 -3.55746 1944 ft 15 kts 310°
2026-05-08 03:34 40.46296 -3.55831 1946 ft 15 kts 275°
2026-05-08 03:34 40.46297 -3.55964 1953 ft 14 kts 270°
2026-05-08 03:34 40.46297 -3.56116 1958 ft 19 kts 270°
2026-05-08 03:35 40.46296 -3.56315 1967 ft 23 kts 269°
2026-05-08 03:35 40.46302 -3.56502 1970 ft 0 kts 266°
2026-05-08 03:35 40.46302 -3.56505 1970 ft 0 kts 269°
2026-05-08 03:35 40.46306 -3.56563 1970 ft 11 kts 295°
2026-05-08 03:36 40.46431 -3.56587 1972 ft 26 kts
2026-05-08 03:36 40.46633 -3.56572 1972 ft 32 kts
2026-05-08 03:36 40.46858 -3.56555 1976 ft 33 kts
2026-05-08 03:36 40.47075 -3.56581 1980 ft 30 kts 336°
2026-05-08 03:37 40.47240 -3.56721 1984 ft 28 kts 322°
2026-05-08 03:37 40.47390 -3.56873 1989 ft 26 kts 322°
2026-05-08 03:37 40.47529 -3.57016 1992 ft 25 kts 323°
2026-05-08 03:37 40.47661 -3.57147 1997 ft 23 kts 323°
2026-05-08 03:38 40.47785 -3.57275 2001 ft 22 kts 323°
2026-05-08 03:38 40.47906 -3.57397 2003 ft 22 kts 321°
2026-05-08 03:38 40.48025 -3.57516 2000 ft 21 kts 323°
2026-05-08 03:38 40.48137 -3.57636 1997 ft 20 kts 323°
2026-05-08 03:39 40.48250 -3.57747 1992 ft 20 kts 321°
2026-05-08 03:39 40.48331 -3.57828 1990 ft 12 kts 324°
2026-05-08 03:39 40.48409 -3.57896 1991 ft 15 kts 327°
2026-05-08 03:39 40.48503 -3.57974 1997 ft 16 kts 328°
2026-05-08 03:40 40.48607 -3.58044 2002 ft 19 kts 348°
2026-05-08 03:40 40.48760 -3.58050 2002 ft 23 kts
2026-05-08 03:40 40.48924 -3.58051 2002 ft 23 kts
2026-05-08 03:40 40.49081 -3.58052 2002 ft 22 kts 360°
2026-05-08 03:41 40.49222 -3.58055 2002 ft 2 kts
2026-05-08 03:41 40.49241 -3.58029 2001 ft 9 kts 72°
2026-05-08 03:41 40.49242 -3.57900 1997 ft 17 kts 89°
2026-05-08 03:42 40.49243 -3.57730 1990 ft 20 kts 90°
2026-05-08 03:42 40.49262 -3.57576 1985 ft 10 kts 65°
2026-05-08 03:42 40.49264 -3.57570 1985 ft 1 kts 64°
2026-05-08 03:42 40.49268 -3.57560 1985 ft 2 kts 64°
2026-05-08 03:43 40.49277 -3.57539 1984 ft 4 kts 60°
2026-05-08 03:43 40.49312 -3.57498 1983 ft 11 kts 33°
2026-05-08 03:43 40.49414 -3.57457 1982 ft 20 kts
2026-05-08 03:43 40.49581 -3.57450 1984 ft 28 kts
2026-05-08 03:44 40.49799 -3.57444 1985 ft 35 kts
2026-05-08 03:44 40.50059 -3.57435 1986 ft 40 kts
2026-05-08 03:44 40.50567 -3.57452 1992 ft 109 kts 357°
2026-05-08 03:44 40.51545 -3.57468 2003 ft 170 kts 359°
2026-05-08 03:45 40.52809 -3.57510 2566 ft 185 kts 358°
2026-05-08 03:45 40.54078 -3.57536 2854 ft 183 kts 359°
2026-05-08 03:45 40.55333 -3.57426 3038 ft 181 kts 15°
2026-05-08 03:45 40.56544 -3.56889 2966 ft 186 kts 17°
2026-05-08 03:46 40.57770 -3.56417 2933 ft 180 kts 15°
2026-05-08 03:46 40.58956 -3.55984 2983 ft 175 kts 15°
2026-05-08 03:46 40.60135 -3.55553 2991 ft 177 kts 16°
2026-05-08 03:46 40.61333 -3.55113 3002 ft 180 kts 16°
2026-05-08 03:47 40.62551 -3.54663 3001 ft 183 kts 16°
2026-05-08 03:47 40.63788 -3.54231 2991 ft 184 kts
2026-05-08 03:47 40.65050 -3.54077 2991 ft 181 kts
2026-05-08 03:47 40.66293 -3.53982 2978 ft 177 kts
2026-05-08 03:48 40.67529 -3.53886 2992 ft 178 kts
2026-05-08 03:48 40.68775 -3.53784 2998 ft 180 kts
2026-05-08 03:48 40.70022 -3.53616 2952 ft 184 kts 17°
2026-05-08 03:48 40.71109 -3.52514 3183 ft 211 kts 57°
2026-05-08 03:49 40.71879 -3.50923 4027 ft 208 kts 56°
2026-05-08 03:49 40.72722 -3.49243 4358 ft 234 kts 56°
2026-05-08 03:49 40.73683 -3.47356 4686 ft 258 kts 56°
2026-05-08 03:49 40.74706 -3.45362 5386 ft 266 kts 57°
2026-05-08 03:50 40.75747 -3.43342 6234 ft 269 kts 57°
2026-05-08 03:50 40.76819 -3.41267 6773 ft 276 kts 57°
2026-05-08 03:50 40.77899 -3.39182 7006 ft 278 kts 57°
2026-05-08 03:50 40.79006 -3.37047 6992 ft 282 kts 57°
2026-05-08 03:51 40.80110 -3.34917 6995 ft 279 kts 57°
2026-05-08 03:51 40.81204 -3.32809 6992 ft 277 kts 57°
2026-05-08 03:51 40.82275 -3.30743 6989 ft 276 kts 57°
2026-05-08 03:51 40.83355 -3.28658 6996 ft 273 kts 57°
2026-05-08 03:52 40.84434 -3.26574 7112 ft 274 kts 55°
2026-05-08 03:52 40.85842 -3.24876 7643 ft 282 kts 29°
2026-05-08 03:52 40.87722 -3.24065 8176 ft 290 kts 12°
2026-05-08 03:52 40.89718 -3.23589 8677 ft 292 kts 10°
2026-05-08 03:53 40.91730 -3.23165 9173 ft 294 kts
2026-05-08 03:53 40.93760 -3.22741 9674 ft 296 kts
2026-05-08 03:53 40.95800 -3.22309 10171 ft 297 kts
2026-05-08 03:53 40.97840 -3.21871 10665 ft 298 kts
2026-05-08 03:54 40.99893 -3.21422 11174 ft 300 kts
2026-05-08 03:54 41.01966 -3.20965 11673 ft 303 kts
2026-05-08 03:54 41.04060 -3.20499 12182 ft 306 kts
2026-05-08 03:54 41.06175 -3.20027 12640 ft 313 kts
2026-05-08 03:55 41.08400 -3.19529 12802 ft 336 kts
2026-05-08 03:55 41.10780 -3.18995 12965 ft 357 kts
2026-05-08 03:55 41.13306 -3.18427 13128 ft 378 kts
2026-05-08 03:55 41.15941 -3.17835 13514 ft 389 kts
2026-05-08 03:56 41.18632 -3.17228 14122 ft 393 kts
2026-05-08 03:56 41.21339 -3.16614 14745 ft 396 kts
2026-05-08 03:56 41.24039 -3.16001 15350 ft 400 kts
2026-05-08 03:56 41.26795 -3.15374 15892 ft 404 kts
2026-05-08 03:57 41.29583 -3.14742 16477 ft 408 kts
2026-05-08 03:57 41.32390 -3.14104 17034 ft 411 kts
2026-05-08 03:57 41.35219 -3.13460 17577 ft 414 kts
2026-05-08 03:57 41.38075 -3.12812 18106 ft 418 kts
2026-05-08 03:58 41.40956 -3.12157 18620 ft 421 kts
2026-05-08 03:58 41.43854 -3.11496 19139 ft 424 kts
2026-05-08 03:58 41.46771 -3.10830 19644 ft 426 kts
2026-05-08 03:58 41.49706 -3.10160 20166 ft 428 kts
2026-05-08 03:59 41.52650 -3.09490 20650 ft 430 kts
2026-05-08 03:59 41.55609 -3.08820 21112 ft 433 kts
2026-05-08 03:59 41.58592 -3.08148 21557 ft 436 kts
2026-05-08 03:59 41.61589 -3.07470 21993 ft 438 kts
2026-05-08 04:00 41.64603 -3.06787 22406 ft 440 kts
2026-05-08 04:00 41.67626 -3.06099 22805 ft 442 kts
2026-05-08 04:00 41.70665 -3.05407 23196 ft 444 kts
2026-05-08 04:00 41.73723 -3.04713 23568 ft 446 kts
2026-05-08 04:01 41.76785 -3.04014 23941 ft 448 kts
2026-05-08 04:01 41.79867 -3.03306 24293 ft 450 kts
2026-05-08 04:01 41.82955 -3.02596 24623 ft 452 kts
2026-05-08 04:01 41.86031 -3.01887 24926 ft 455 kts
2026-05-08 04:02 41.89167 -3.01163 25227 ft 457 kts
2026-05-08 04:02 41.92316 -3.00436 25529 ft 460 kts
2026-05-08 04:02 41.95473 -2.99706 25845 ft 461 kts
2026-05-08 04:02 41.98654 -2.98971 26118 ft 464 kts
2026-05-08 04:03 42.01838 -2.98236 26375 ft 467 kts
2026-05-08 04:03 42.08183 -2.96763 27191 ft 464 kts
2026-05-08 04:03 42.11383 -2.96020 27372 ft 468 kts
2026-05-08 04:04 42.14608 -2.95271 27556 ft 472 kts
2026-05-08 04:04 42.17849 -2.94519 27861 ft 472 kts
2026-05-08 04:04 42.21093 -2.93765 28124 ft 474 kts
2026-05-08 04:04 42.24351 -2.93006 28340 ft 476 kts
2026-05-08 04:05 42.27626 -2.92242 28538 ft 478 kts
2026-05-08 04:05 42.30911 -2.91472 28848 ft 477 kts
2026-05-08 04:05 42.34173 -2.90707 29226 ft 475 kts
2026-05-08 04:05 42.37426 -2.89946 29520 ft 474 kts
2026-05-08 04:06 42.40684 -2.89162 29772 ft 477 kts
2026-05-08 04:06 42.43882 -2.87847 30049 ft 484 kts 18°
2026-05-08 04:06 42.46913 -2.85812 30368 ft 489 kts 26°
2026-05-08 04:06 42.49659 -2.83168 30698 ft 494 kts 36°
2026-05-08 04:07 42.52238 -2.80093 31025 ft 494 kts 38°
2026-05-08 04:07 42.54779 -2.76948 31303 ft 494 kts 38°
2026-05-08 04:07 42.57308 -2.73791 31566 ft 494 kts 38°
2026-05-08 04:07 42.59846 -2.70644 31813 ft 494 kts 38°
2026-05-08 04:08 42.62397 -2.67509 32100 ft 494 kts 37°
2026-05-08 04:08 42.64953 -2.64396 32370 ft 493 kts 37°
2026-05-08 04:08 42.67513 -2.61293 32646 ft 492 kts 37°
2026-05-08 04:08 42.70064 -2.58203 32939 ft 491 kts 37°
2026-05-08 04:09 42.72616 -2.55111 33196 ft 491 kts 37°
2026-05-08 04:09 42.75167 -2.52014 33423 ft 491 kts 37°
2026-05-08 04:09 42.77708 -2.48924 33691 ft 490 kts 37°
2026-05-08 04:09 42.80248 -2.45829 33909 ft 491 kts 36°
2026-05-08 04:10 42.82792 -2.42726 34146 ft 490 kts 36°
2026-05-08 04:10 42.85333 -2.39622 34386 ft 490 kts 36°
2026-05-08 04:10 42.87832 -2.36566 34592 ft 490 kts 36°
2026-05-08 04:10 42.90364 -2.33466 34812 ft 489 kts 36°
2026-05-08 04:11 42.92891 -2.30366 35096 ft 488 kts 36°
2026-05-08 04:11 42.95412 -2.27272 35343 ft 486 kts 37°
2026-05-08 04:11 42.97927 -2.24184 35542 ft 486 kts 37°
2026-05-08 04:11 43.00440 -2.21092 35701 ft 487 kts 37°
2026-05-08 04:12 43.02952 -2.17989 35898 ft 487 kts 37°
2026-05-08 04:12 43.05470 -2.14872 35916 ft 489 kts 37°
2026-05-08 04:12 43.10506 -2.08627 35925 ft 487 kts 37°
2026-05-08 04:13 43.15504 -2.02427 35930 ft 483 kts 37°
2026-05-08 04:13 43.20465 -1.96265 35924 ft 479 kts 36°
2026-05-08 04:14 43.25392 -1.90130 35918 ft 477 kts 36°
2026-05-08 04:14 43.30283 -1.84069 35914 ft 474 kts 33°
2026-05-08 04:15 43.35742 -1.79288 35926 ft 462 kts 21°
2026-05-08 04:15 43.40471 -1.75683 35917 ft 467 kts 25°
2026-05-08 04:16 43.45901 -1.70783 35922 ft 471 kts 27°
2026-05-08 04:16 43.51342 -1.65698 35919 ft 474 kts 27°
2026-05-08 04:17 43.56835 -1.60640 35919 ft 475 kts 27°
2026-05-08 04:17 43.62359 -1.55610 35919 ft 476 kts 26°
2026-05-08 04:18 43.67903 -1.50571 35923 ft 477 kts 26°
2026-05-08 04:18 43.73413 -1.45550 35914 ft 477 kts 26°
2026-05-08 04:19 43.78941 -1.40496 35917 ft 476 kts 26°
2026-05-08 04:19 43.84469 -1.35431 35919 ft 475 kts 27°
2026-05-08 04:20 43.89980 -1.30370 35913 ft 475 kts 27°
2026-05-08 04:20 43.95493 -1.25299 35915 ft 474 kts 27°
2026-05-08 04:21 44.00955 -1.20261 35917 ft 474 kts 27°
2026-05-08 04:21 44.06437 -1.15193 35921 ft 473 kts 27°
2026-05-08 04:22 44.11910 -1.10119 35911 ft 472 kts 27°
2026-05-08 04:22 44.17363 -1.05055 35916 ft 470 kts 27°
2026-05-08 04:23 44.22793 -1.00001 35922 ft 469 kts 27°
2026-05-08 04:23 44.28217 -0.94942 35922 ft 468 kts 27°
2026-05-08 04:24 44.33624 -0.89885 35915 ft 468 kts 27°
2026-05-08 04:24 44.38993 -0.84865 35915 ft 466 kts 26°
2026-05-08 04:25 44.44729 -0.80862 35920 ft 458 kts 17°
2026-05-08 04:25 44.50594 -0.77377 35923 ft 458 kts 16°
2026-05-08 04:26 44.56457 -0.73879 35932 ft 459 kts 17°
2026-05-08 04:26 44.62329 -0.70313 35927 ft 460 kts 17°
2026-05-08 04:27 44.68190 -0.66716 35935 ft 460 kts 17°
2026-05-08 04:27 44.74054 -0.63104 35935 ft 461 kts 17°
2026-05-08 04:28 44.79891 -0.59503 35934 ft 461 kts 18°
2026-05-08 04:28 44.85775 -0.55866 35937 ft 462 kts 18°
2026-05-08 04:29 44.91667 -0.52216 35935 ft 462 kts 18°
2026-05-08 04:29 44.97555 -0.48561 35934 ft 462 kts 18°
2026-05-08 04:30 45.03448 -0.44893 35947 ft 462 kts 18°
2026-05-08 04:30 45.09337 -0.41219 35943 ft 463 kts 18°
2026-05-08 04:31 45.15222 -0.37541 35943 ft 462 kts 18°
2026-05-08 04:31 45.21098 -0.33861 35946 ft 461 kts 18°
2026-05-08 04:32 45.26969 -0.30176 35943 ft 460 kts 18°
2026-05-08 04:32 45.32784 -0.26516 35946 ft 460 kts 18°
2026-05-08 04:33 45.38639 -0.22822 35942 ft 459 kts 18°
2026-05-08 04:33 45.44477 -0.19132 35942 ft 459 kts 18°
2026-05-08 04:34 45.50318 -0.15430 35948 ft 459 kts 18°
2026-05-08 04:34 45.56145 -0.11729 35945 ft 459 kts 18°
2026-05-08 04:35 45.61980 -0.08015 35946 ft 459 kts 18°
2026-05-08 04:35 45.67812 -0.04295 35957 ft 459 kts 19°
2026-05-08 04:36 45.73610 -0.00588 35952 ft 460 kts 19°
2026-05-08 04:36 45.79454 0.03156 35948 ft 461 kts 20°
2026-05-08 04:37 45.85313 0.06920 35968 ft 462 kts 21°
2026-05-08 04:37 45.91184 0.10700 35969 ft 464 kts 21°
2026-05-08 04:38 45.97078 0.14503 35965 ft 465 kts 21°
2026-05-08 04:38 46.02982 0.18322 35962 ft 465 kts 21°
2026-05-08 04:39 46.08895 0.22158 35964 ft 466 kts 21°
2026-05-08 04:39 46.14780 0.25983 35964 ft 467 kts 21°
2026-05-08 04:40 46.20713 0.29848 35962 ft 468 kts 21°
2026-05-08 04:40 46.26647 0.33723 35970 ft 467 kts 21°
2026-05-08 04:41 46.32570 0.37602 35972 ft 467 kts 21°
2026-05-08 04:41 46.38494 0.41490 35973 ft 467 kts 21°
2026-05-08 04:42 46.44422 0.45388 35971 ft 467 kts 21°
2026-05-08 04:42 46.50335 0.49287 35965 ft 467 kts 21°
2026-05-08 04:43 46.56241 0.53078 35956 ft 466 kts 17°
2026-05-08 04:43 46.62478 0.55389 35970 ft 462 kts
2026-05-08 04:44 46.68781 0.57336 35974 ft 463 kts
2026-05-08 04:44 46.75089 0.59352 35972 ft 464 kts 10°
2026-05-08 04:45 46.81406 0.61436 35973 ft 466 kts 10°
2026-05-08 04:45 46.87730 0.63540 35975 ft 467 kts 10°
2026-05-08 04:46 46.94085 0.65657 35980 ft 468 kts 10°
2026-05-08 04:46 47.00444 0.67776 35981 ft 469 kts 10°
2026-05-08 04:47 47.06658 0.70784 35996 ft 474 kts 26°
2026-05-08 04:47 47.12339 0.75768 35986 ft 476 kts 30°
2026-05-08 04:48 47.17921 0.80897 35995 ft 477 kts 30°
2026-05-08 04:48 47.23578 0.86012 35997 ft 477 kts 30°
2026-05-08 04:49 47.29246 0.91088 35996 ft 477 kts 30°
2026-05-08 04:49 47.34926 0.96179 36002 ft 478 kts 30°
2026-05-08 04:50 47.40605 1.01290 35997 ft 478 kts 30°
2026-05-08 04:50 47.46278 1.06408 35996 ft 478 kts 30°
2026-05-08 04:51 47.51963 1.11493 35998 ft 477 kts 28°
2026-05-08 04:51 47.57811 1.16133 36001 ft 476 kts 26°
2026-05-08 04:52 47.63669 1.20610 36007 ft 477 kts 26°
2026-05-08 04:52 47.69546 1.25165 36009 ft 477 kts 26°
2026-05-08 04:53 47.75419 1.29776 36010 ft 477 kts 26°
2026-05-08 04:53 47.81286 1.34408 36020 ft 477 kts 26°
2026-05-08 04:54 47.87163 1.39059 36016 ft 478 kts 27°
2026-05-08 04:54 47.93033 1.43714 36020 ft 479 kts 27°
2026-05-08 04:55 47.98926 1.48400 36019 ft 479 kts 27°
2026-05-08 04:55 48.04814 1.53092 36020 ft 480 kts 27°
2026-05-08 04:56 48.10713 1.57807 36020 ft 481 kts 27°
2026-05-08 04:56 48.16580 1.62503 36023 ft 481 kts 27°
2026-05-08 04:57 48.22492 1.67238 36029 ft 482 kts 27°
2026-05-08 04:57 48.28402 1.71983 36027 ft 482 kts 27°
2026-05-08 04:58 48.34312 1.76743 36027 ft 482 kts 27°
2026-05-08 04:58 48.40225 1.81517 36032 ft 481 kts 27°
2026-05-08 04:59 48.46120 1.86293 36038 ft 481 kts 27°
2026-05-08 04:59 48.52018 1.91082 36046 ft 481 kts 27°
2026-05-08 05:00 48.57907 1.95878 36053 ft 481 kts 27°
2026-05-08 05:00 48.63790 2.00682 36047 ft 480 kts 27°
2026-05-08 05:01 48.69665 2.05490 36050 ft 480 kts 27°
2026-05-08 05:01 48.72513 2.08154 36025 ft 481 kts 39°
2026-05-08 05:01 48.74834 2.11776 36056 ft 480 kts 54°
2026-05-08 05:02 48.76532 2.16123 36036 ft 479 kts 69°
2026-05-08 05:02 48.77528 2.20923 36070 ft 477 kts 77°
2026-05-08 05:02 48.79161 2.30682 36045 ft 478 kts 77°
2026-05-08 05:03 48.80833 2.40438 36047 ft 478 kts 76°
2026-05-08 05:03 48.82553 2.50134 36052 ft 479 kts 76°
2026-05-08 05:04 48.84286 2.59892 36059 ft 479 kts 76°
2026-05-08 05:04 48.85731 2.68087 36065 ft 479 kts 76°
2026-05-08 05:05 48.87434 2.77804 36041 ft 480 kts 76°
2026-05-08 05:05 48.89143 2.87610 36045 ft 480 kts 76°
2026-05-08 05:06 48.90843 2.97415 36043 ft 480 kts 76°
2026-05-08 05:06 48.92535 3.07228 36046 ft 479 kts 76°
2026-05-08 05:07 48.94217 3.17036 36063 ft 479 kts 76°
2026-05-08 05:07 48.95888 3.26837 36063 ft 479 kts 76°
2026-05-08 05:08 48.97552 3.36652 36059 ft 479 kts 77°
2026-05-08 05:08 48.99206 3.46465 36059 ft 479 kts 77°
2026-05-08 05:09 49.00854 3.56287 36062 ft 479 kts 77°
2026-05-08 05:09 49.02485 3.66078 36052 ft 479 kts 77°
2026-05-08 05:10 49.04925 3.80822 36054 ft 478 kts 77°
2026-05-08 05:11 49.06542 3.90670 36054 ft 478 kts 77°
2026-05-08 05:11 49.08150 4.00513 36058 ft 479 kts 77°
2026-05-08 05:12 49.09750 4.10368 36053 ft 479 kts 77°
2026-05-08 05:12 49.11344 4.20241 36053 ft 479 kts 77°
2026-05-08 05:13 49.12920 4.30053 36058 ft 479 kts 77°
2026-05-08 05:13 49.14770 4.39839 36058 ft 479 kts 69°
2026-05-08 05:14 49.17333 4.49244 36051 ft 480 kts 67°
2026-05-08 05:14 49.19952 4.58633 36059 ft 480 kts 67°
2026-05-08 05:15 49.22524 4.68052 36057 ft 480 kts 68°
2026-05-08 05:15 49.25062 4.77505 36050 ft 480 kts 68°
2026-05-08 05:16 49.27567 4.86897 36061 ft 480 kts 68°
2026-05-08 05:16 49.30085 4.96368 36054 ft 481 kts 68°
2026-05-08 05:17 49.32602 5.05871 36027 ft 481 kts 68°
2026-05-08 05:17 49.35111 5.15380 36029 ft 481 kts 68°
2026-05-08 05:18 49.37615 5.24909 36030 ft 481 kts 68°
2026-05-08 05:18 49.40116 5.34467 36027 ft 481 kts 68°
2026-05-08 05:19 49.42602 5.44010 36044 ft 481 kts 68°
2026-05-08 05:19 49.45080 5.53556 36042 ft 482 kts 68°
2026-05-08 05:20 49.47551 5.63118 36046 ft 481 kts 68°
2026-05-08 05:20 49.50094 5.72634 36043 ft 480 kts 61°
2026-05-08 05:20 49.51908 5.76922 36066 ft 478 kts 50°
2026-05-08 05:21 49.54144 5.80613 36067 ft 476 kts 40°
2026-05-08 05:21 49.59536 5.86467 36069 ft 475 kts 30°
2026-05-08 05:22 49.65158 5.91883 36071 ft 476 kts 30°
2026-05-08 05:22 49.70738 5.97411 36071 ft 475 kts 31°
2026-05-08 05:23 49.76266 6.03010 36077 ft 475 kts 31°
2026-05-08 05:23 49.81791 6.08611 36068 ft 474 kts 30°
2026-05-08 05:23 49.84710 6.10941 36071 ft 470 kts 18°
2026-05-08 05:24 49.87807 6.12451 36080 ft 466 kts
2026-05-08 05:24 49.94196 6.13271 36086 ft 459 kts 356°
2026-05-08 05:25 50.00594 6.13156 36071 ft 460 kts 356°
2026-05-08 05:25 50.06963 6.13099 36081 ft 461 kts 356°
2026-05-08 05:26 50.13388 6.13119 36072 ft 462 kts 357°
2026-05-08 05:26 50.19824 6.13155 36074 ft 463 kts 357°
2026-05-08 05:27 50.26261 6.13282 36065 ft 465 kts
2026-05-08 05:27 50.29469 6.14204 36076 ft 469 kts 13°
2026-05-08 05:27 50.32499 6.15931 36078 ft 472 kts 23°
2026-05-08 05:28 50.38096 6.21375 36082 ft 475 kts 32°
2026-05-08 05:28 50.43547 6.27231 36079 ft 474 kts 32°
2026-05-08 05:29 50.49053 6.32953 36080 ft 474 kts 31°
2026-05-08 05:29 50.54604 6.38548 36090 ft 473 kts 30°
2026-05-08 05:30 50.60174 6.44064 36089 ft 473 kts 30°
2026-05-08 05:30 50.65740 6.49606 36097 ft 473 kts 30°
2026-05-08 05:31 50.71304 6.55185 36093 ft 473 kts 30°
2026-05-08 05:31 50.76825 6.60744 36105 ft 474 kts 30°
2026-05-08 05:32 50.82362 6.66334 36099 ft 474 kts 31°
2026-05-08 05:32 50.87908 6.71948 36099 ft 473 kts 31°
2026-05-08 05:33 50.93450 6.77576 36103 ft 473 kts 31°
2026-05-08 05:33 50.98990 6.83218 36102 ft 473 kts 31°
2026-05-08 05:34 51.04518 6.88863 36102 ft 473 kts 31°
2026-05-08 05:34 51.10048 6.94529 36104 ft 473 kts 31°
2026-05-08 05:35 51.15568 7.00199 36104 ft 472 kts 31°
2026-05-08 05:35 51.21094 7.05889 36099 ft 472 kts 31°
2026-05-08 05:36 51.26609 7.11586 36102 ft 472 kts 31°
2026-05-08 05:36 51.32083 7.17259 36099 ft 471 kts 31°
2026-05-08 05:37 51.37581 7.22972 36107 ft 471 kts 31°
2026-05-08 05:37 51.43075 7.28693 36122 ft 471 kts 31°
2026-05-08 05:38 51.48647 7.34221 36124 ft 470 kts 29°
2026-05-08 05:38 51.54249 7.39647 36125 ft 470 kts 29°
2026-05-08 05:39 51.59837 7.45112 36125 ft 470 kts 30°
2026-05-08 05:39 51.65413 7.50617 36134 ft 470 kts 30°
2026-05-08 05:40 51.70985 7.56141 36125 ft 469 kts 30°
2026-05-08 05:40 51.76545 7.61668 36135 ft 469 kts 30°
2026-05-08 05:41 51.82101 7.67202 36126 ft 468 kts 30°
2026-05-08 05:41 51.87389 7.73336 36115 ft 470 kts 43°
2026-05-08 05:42 51.91885 7.80924 36127 ft 470 kts 46°
2026-05-08 05:42 51.96367 7.88630 36133 ft 469 kts 45°
2026-05-08 05:43 52.00899 7.96266 36129 ft 469 kts 45°
2026-05-08 05:43 52.05429 8.03889 36134 ft 469 kts 45°
2026-05-08 05:44 52.09961 8.11546 36130 ft 469 kts 45°
2026-05-08 05:44 52.14471 8.19191 36117 ft 459 kts 45°
2026-05-08 05:44 52.16644 8.22884 36122 ft 444 kts 45°
2026-05-08 05:45 52.18764 8.26433 36110 ft 429 kts 41°
2026-05-08 05:45 52.21031 8.29456 36122 ft 414 kts 32°
2026-05-08 05:45 52.23468 8.31763 36146 ft 398 kts 25°
2026-05-08 05:46 52.28265 8.35784 36157 ft 389 kts 25°
2026-05-08 05:46 52.33147 8.39953 36173 ft 402 kts 26°
2026-05-08 05:47 52.38157 8.44312 36158 ft 410 kts 26°
2026-05-08 05:47 52.40671 8.46516 35989 ft 412 kts 26°
2026-05-08 05:47 52.43225 8.48758 35271 ft 420 kts 26°
2026-05-08 05:47 52.45835 8.51053 34307 ft 431 kts 26°
2026-05-08 05:48 52.48521 8.53414 33256 ft 443 kts 26°
2026-05-08 05:48 52.51270 8.55835 32258 ft 452 kts 27°
2026-05-08 05:48 52.53963 8.58544 31116 ft 458 kts 39°
2026-05-08 05:48 52.56097 8.62467 29840 ft 466 kts 57°
2026-05-08 05:49 52.57487 8.67293 28592 ft 470 kts 75°
2026-05-08 05:49 52.58047 8.72556 27601 ft 466 kts 83°
2026-05-08 05:49 52.58405 8.77807 26808 ft 457 kts 84°
2026-05-08 05:49 52.58739 8.82962 25966 ft 450 kts 84°
2026-05-08 05:50 52.59077 8.88045 25064 ft 445 kts 84°
2026-05-08 05:50 52.59427 8.93076 24151 ft 440 kts 84°
2026-05-08 05:50 52.59784 8.98052 23267 ft 435 kts 84°
2026-05-08 05:50 52.60021 9.01311 22706 ft 431 kts 83°
2026-05-08 05:51 52.60377 9.06183 21885 ft 425 kts 83°
2026-05-08 05:51 52.60728 9.10986 21055 ft 419 kts 83°
2026-05-08 05:51 52.61181 9.17225 20259 ft 406 kts 83°
2026-05-08 05:51 52.61401 9.20292 20101 ft 393 kts 84°
2026-05-08 05:52 52.61715 9.24674 19918 ft 377 kts 84°
2026-05-08 05:52 52.62014 9.28873 19713 ft 363 kts 84°
2026-05-08 05:52 52.62303 9.32939 19464 ft 352 kts 84°
2026-05-08 05:52 52.62577 9.36874 19259 ft 341 kts 85°
2026-05-08 05:53 52.62633 9.40711 19045 ft 330 kts 93°
2026-05-08 05:53 52.62508 9.44511 18311 ft 337 kts 94°
2026-05-08 05:53 52.62225 9.48309 17572 ft 341 kts 108°
2026-05-08 05:53 52.61132 9.51761 16833 ft 342 kts 131°
2026-05-08 05:54 52.59327 9.54269 16088 ft 341 kts 153°
2026-05-08 05:54 52.57098 9.55519 15346 ft 339 kts 174°
2026-05-08 05:54 52.54780 9.55208 14586 ft 336 kts 201°
2026-05-08 05:54 52.52686 9.53542 13860 ft 334 kts 201°
2026-05-08 05:55 52.50400 9.52842 13114 ft 335 kts 184°
2026-05-08 05:55 52.48086 9.52960 12340 ft 335 kts 167°
2026-05-08 05:55 52.46015 9.54634 11594 ft 334 kts 139°
2026-05-08 05:55 52.44655 9.57670 10852 ft 333 kts 111°
2026-05-08 05:56 52.44309 9.61375 10098 ft 331 kts 83°
2026-05-08 05:56 52.45031 9.64857 9359 ft 329 kts 56°
2026-05-08 05:56 52.46692 9.67430 8601 ft 326 kts 28°
2026-05-08 05:56 52.48736 9.68902 7875 ft 323 kts 30°
2026-05-08 05:57 52.50361 9.71392 7102 ft 321 kts 59°
2026-05-08 05:57 52.51045 9.74826 6353 ft 318 kts 87°
2026-05-08 05:57 52.50640 9.78336 5615 ft 316 kts 115°
2026-05-08 05:57 52.49257 9.81103 4860 ft 316 kts 144°
2026-05-08 05:58 52.47239 9.82426 4114 ft 316 kts 172°
2026-05-08 05:58 52.45052 9.82629 3375 ft 313 kts 172°
2026-05-08 05:58 52.43058 9.83897 2619 ft 309 kts 142°
2026-05-08 05:58 52.41807 9.86619 2342 ft 290 kts 107°
2026-05-08 05:59 52.41718 9.89670 2686 ft 251 kts 73°
2026-05-08 05:59 52.42611 9.91862 3022 ft 229 kts 36°
2026-05-08 05:59 52.44150 9.92726 3219 ft 246 kts
2026-05-08 05:59 52.45907 9.92947 3134 ft 257 kts
2026-05-08 06:00 52.47636 9.93456 3127 ft 250 kts 27°
2026-05-08 06:00 52.48836 9.95308 3279 ft 239 kts 64°
2026-05-08 06:00 52.49067 9.97968 3572 ft 243 kts 102°
2026-05-08 06:00 52.48241 10.00384 3873 ft 252 kts 138°
2026-05-08 06:01 52.46666 10.01584 4086 ft 255 kts 172°
2026-05-08 06:01 52.44890 10.01695 4136 ft 256 kts 171°
2026-05-08 06:01 52.43330 10.02910 4229 ft 250 kts 132°
2026-05-08 06:01 52.42558 10.05400 4470 ft 250 kts 97°
2026-05-08 06:02 52.42858 10.08164 4784 ft 251 kts 60°
2026-05-08 06:02 52.44104 10.10129 5039 ft 255 kts 25°
2026-05-08 06:02 52.45831 10.10766 5391 ft 253 kts
2026-05-08 06:02 52.47626 10.11192 5258 ft 273 kts
2026-05-08 06:03 52.49484 10.11584 5267 ft 265 kts 360°
2026-05-08 06:03 52.51194 10.10769 5226 ft 259 kts 329°
2026-05-08 06:03 52.52481 10.08663 4838 ft 265 kts 302°
2026-05-08 06:03 52.53303 10.05958 4626 ft 263 kts 294°
2026-05-08 06:04 52.54015 10.03229 4521 ft 257 kts 295°
2026-05-08 06:04 52.54673 10.00494 4257 ft 260 kts 286°
2026-05-08 06:04 52.54972 9.97502 3939 ft 265 kts 276°
2026-05-08 06:04 52.55133 9.94619 4270 ft 244 kts 275°
2026-05-08 06:05 52.55285 9.91770 4064 ft 258 kts 274°
2026-05-08 06:05 52.55304 9.88802 3967 ft 260 kts 267°
2026-05-08 06:05 52.55180 9.85922 4065 ft 254 kts 264°
2026-05-08 06:05 52.54978 9.82990 3821 ft 265 kts 262°
2026-05-08 06:06 52.54741 9.80024 3823 ft 258 kts 262°
2026-05-08 06:06 52.54491 9.77128 3861 ft 256 kts 261°
2026-05-08 06:06 52.54208 9.74292 4026 ft 247 kts 260°
2026-05-08 06:06 52.53918 9.71472 4250 ft 256 kts 263°
2026-05-08 06:07 52.53808 9.68535 4516 ft 255 kts 269°
2026-05-08 06:07 52.53762 9.65585 5013 ft 263 kts 268°
2026-05-08 06:07 52.53709 9.62527 4976 ft 267 kts 269°
2026-05-08 06:07 52.53800 9.59501 5096 ft 263 kts 277°
2026-05-08 06:08 52.54075 9.56561 5056 ft 267 kts 280°
2026-05-08 06:08 52.54419 9.53556 4810 ft 265 kts 281°
2026-05-08 06:08 52.54766 9.50618 4727 ft 259 kts 279°
2026-05-08 06:08 52.54916 9.47641 4438 ft 262 kts 268°
2026-05-08 06:09 52.54595 9.44750 4405 ft 258 kts 250°
2026-05-08 06:09 52.53736 9.42162 4258 ft 258 kts 230°
2026-05-08 06:09 52.52357 9.40528 4298 ft 236 kts 199°
2026-05-08 06:09 52.50802 9.40139 4110 ft 219 kts 171°
2026-05-08 06:10 52.49462 9.41068 3900 ft 208 kts 140°
2026-05-08 06:10 52.48501 9.42905 3240 ft 220 kts 118°
2026-05-08 06:10 52.48038 9.45342 2616 ft 229 kts 95°
2026-05-08 06:10 52.47820 9.47862 2422 ft 216 kts 103°
2026-05-08 06:11 52.47424 9.50202 2196 ft 211 kts 106°
2026-05-08 06:11 52.47150 9.52519 1956 ft 205 kts 92°
2026-05-08 06:11 52.47112 9.54809 1708 ft 197 kts 92°
2026-05-08 06:11 52.47068 9.57018 1448 ft 193 kts 92°
2026-05-08 06:12 52.46993 9.59259 1040 ft 198 kts 94°
2026-05-08 06:12 52.46938 9.61414 836 ft 183 kts 92°
2026-05-08 06:12 52.46875 9.63458 488 ft 174 kts 92°
2026-05-08 06:12 52.46824 9.65394 232 ft 169 kts 92°
2026-05-08 06:13 52.46776 9.67140 185 ft 136 kts 92°
2026-05-08 06:13 52.46746 9.68299 191 ft 70 kts 92°
2026-05-08 06:13 52.46731 9.68836 190 ft 35 kts 93°
2026-05-08 06:13 52.46712 9.69237 188 ft 34 kts 94°
2026-05-08 06:14 52.46701 9.69617 185 ft 32 kts 91°
2026-05-08 06:14 52.46654 9.69934 191 ft 23 kts 153°
2026-05-08 06:14 52.46610 9.69948 187 ft 0 kts 181°
2026-05-08 06:16 52.46607 9.69948 187 ft 2 kts 181°
2026-05-08 06:16 52.46553 9.69928 189 ft 14 kts 207°
2026-05-08 06:16 52.46484 9.69737 201 ft 26 kts 249°
2026-05-08 06:17 52.46310 9.69013 199 ft 35 kts 248°
2026-05-08 06:17 52.46226 9.68754 190 ft 23 kts 200°
2026-05-08 06:17 52.46091 9.68864 195 ft 22 kts 138°
2026-05-08 06:18 52.45968 9.69009 199 ft 21 kts 142°
2026-05-08 06:18 52.45852 9.69098 190 ft 18 kts 206°
2026-05-08 06:18 52.45782 9.68934 197 ft 17 kts 258°
2026-05-08 06:18 52.45781 9.68805 194 ft 10 kts 272°
2026-05-08 06:19 52.45784 9.68697 197 ft 9 kts 272°
2026-05-08 06:19 52.45787 9.68645 194 ft 4 kts 293°
2026-05-08 06:19 52.45812 9.68634 190 ft 4 kts 358°
2026-05-08 06:19 52.45838 9.68634 190 ft 4 kts
2026-05-08 06:20 52.45862 9.68635 197 ft 2 kts
2026-05-08 06:20 52.45867 9.68635 190 ft 0 kts